| time (UTC) | temp F | wind direction | speed MPH | gust MPH | rain 1hr in | rain 24hr in | rain mn in | humidity % | barometer mb |
| 20260903001005 | 82 | 157 | 1.0 | 2.0 | 0.00 | 0.35 | 0.34 | 72 | 1007.5 |
| 20260903000006 | 83 | 157 | 1.0 | 2.0 | 0.00 | 0.35 | 0.34 | 72 | 1007.6 |
| 20260902235006 | 83 | 157 | 1.0 | 5.0 | 0.00 | 0.35 | 0.34 | 71 | 1007.6 |
| 20260902234006 | 83 | 157 | 1.0 | 6.0 | 0.00 | 0.35 | 0.34 | 71 | 1007.6 |
| 20260902233506 | 83 | 155 | 2.0 | 3.0 | 0.00 | 0.35 | 0.34 | 70 | 1007.6 |
| 20260902233006 | 83 | 155 | 1.0 | 3.0 | 0.00 | 0.35 | 0.34 | 71 | 1007.7 |
| 20260902232505 | 83 | 155 | 1.0 | 3.0 | 0.00 | 0.35 | 0.34 | 72 | 1007.6 |
| 20260902232006 | 83 | 155 | 1.0 | 3.0 | 0.00 | 0.35 | 0.34 | 72 | 1007.6 |
| 20260902231506 | 84 | 155 | 1.0 | 3.0 | 0.00 | 0.35 | 0.34 | 71 | 1007.6 |
| 20260902230505 | 84 | 155 | 1.0 | 3.0 | 0.00 | 0.35 | 0.34 | 71 | 1007.6 |
| 20260902230006 | 84 | 155 | 1.0 | 2.0 | 0.00 | 0.35 | 0.34 | 71 | 1007.6 |
| 20260902225505 | 84 | 155 | 1.0 | 3.0 | 0.00 | 0.35 | 0.34 | 70 | 1007.6 |
| 20260902225006 | 84 | 155 | 1.0 | 3.0 | 0.00 | 0.35 | 0.34 | 69 | 1007.6 |
| 20260902224505 | 84 | 155 | 0.0 | 3.0 | 0.00 | 0.35 | 0.34 | 70 | 1007.5 |
| 20260902224006 | 85 | 155 | 0.0 | 2.0 | 0.00 | 0.35 | 0.34 | 70 | 1007.5 |
| 20260902223506 | 85 | 155 | 2.0 | 3.0 | 0.00 | 0.35 | 0.34 | 69 | 1007.5 |
| 20260902223006 | 85 | 155 | 0.0 | 2.0 | 0.00 | 0.35 | 0.34 | 69 | 1007.5 |
| 20260902222506 | 85 | 155 | 2.0 | 3.0 | 0.00 | 0.35 | 0.34 | 68 | 1007.5 |
| 20260902221506 | 85 | 155 | 1.0 | 6.0 | 0.00 | 0.35 | 0.34 | 70 | 1007.5 |
| 20260902221006 | 85 | 153 | 2.0 | 6.0 | 0.00 | 0.35 | 0.34 | 69 | 1007.5 |
| 20260902220505 | 85 | 153 | 2.0 | 5.0 | 0.00 | 0.35 | 0.34 | 69 | 1007.5 |
| 20260902220006 | 85 | 152 | 1.0 | 5.0 | 0.00 | 0.35 | 0.34 | 70 | 1007.5 |
| 20260902215505 | 85 | 161 | 2.0 | 5.0 | 0.00 | 0.35 | 0.34 | 69 | 1007.5 |
| 20260902215006 | 85 | 161 | 1.0 | 2.0 | 0.00 | 0.35 | 0.34 | 69 | 1007.5 |
| 20260902214506 | 85 | 161 | 2.0 | 5.0 | 0.00 | 0.35 | 0.34 | 68 | 1007.6 |
| 20260902214005 | 86 | 161 | 2.0 | 5.0 | 0.00 | 0.35 | 0.34 | 68 | 1007.6 |
| 20260902213506 | 86 | 161 | 1.0 | 2.0 | 0.00 | 0.35 | 0.34 | 69 | 1007.6 |
| 20260902213006 | 86 | 161 | 3.0 | 6.0 | 0.00 | 0.35 | 0.34 | 67 | 1007.7 |
| 20260902212506 | 86 | 158 | 1.0 | 5.0 | 0.00 | 0.35 | 0.34 | 67 | 1007.7 |
| 20260902212006 | 86 | 141 | 3.0 | 6.0 | 0.00 | 0.35 | 0.34 | 67 | 1007.7 |
| 20260902211506 | 86 | 126 | 1.0 | 3.0 | 0.00 | 0.35 | 0.34 | 68 | 1007.8 |
| 20260902211006 | 86 | 117 | 1.0 | 3.0 | 0.00 | 0.35 | 0.34 | 68 | 1007.8 |
| 20260902210506 | 86 | 116 | 2.0 | 3.0 | 0.00 | 0.35 | 0.34 | 67 | 1007.9 |
| 20260902210006 | 86 | 162 | 2.0 | 5.0 | 0.00 | 0.35 | 0.34 | 66 | 1007.9 |
| 20260902205506 | 86 | 162 | 1.0 | 3.0 | 0.00 | 0.35 | 0.34 | 67 | 1007.9 |
| 20260902205005 | 86 | 162 | 1.0 | 5.0 | 0.00 | 0.35 | 0.34 | 68 | 1008.0 |
| 20260902204506 | 86 | 163 | 3.0 | 6.0 | 0.00 | 0.35 | 0.34 | 66 | 1008.0 |
| 20260902204005 | 86 | 160 | 1.0 | 5.0 | 0.00 | 0.35 | 0.34 | 66 | 1007.9 |
| 20260902203505 | 86 | 160 | 2.0 | 5.0 | 0.00 | 0.35 | 0.34 | 66 | 1007.9 |
| 20260902201506 | 86 | 163 | 2.0 | 5.0 | 0.00 | 0.35 | 0.34 | 67 | 1008.0 |
| 20260902201005 | 86 | 163 | 1.0 | 3.0 | 0.00 | 0.35 | 0.34 | 67 | 1007.9 |
| 20260902200506 | 86 | 163 | 1.0 | 6.0 | 0.00 | 0.35 | 0.34 | 66 | 1008.0 |
| 20260902200006 | 86 | 176 | 2.0 | 6.0 | 0.00 | 0.35 | 0.34 | 64 | 1008.1 |
| 20260902195506 | 86 | 155 | 1.0 | 3.0 | 0.00 | 0.35 | 0.34 | 66 | 1008.1 |
| 20260902195009 | 86 | 155 | 2.0 | 3.0 | 0.00 | 0.35 | 0.34 | 64 | 1008.1 |
| 20260902194506 | 86 | 154 | 1.0 | 2.0 | 0.00 | 0.35 | 0.34 | 66 | 1008.1 |
| 20260902194006 | 87 | 154 | 0.0 | 2.0 | 0.00 | 0.35 | 0.34 | 64 | 1008.2 |
| 20260902193506 | 87 | 154 | 1.0 | 3.0 | 0.00 | 0.35 | 0.34 | 65 | 1008.3 |
| 20260902193005 | 86 | 154 | 1.0 | 3.0 | 0.00 | 0.35 | 0.34 | 61 | 1008.2 |
| 20260902192006 | 87 | 154 | 1.0 | 3.0 | 0.00 | 0.35 | 0.34 | 64 | 1008.2 |
| 20260902191505 | 87 | 154 | 1.0 | 2.0 | 0.00 | 0.35 | 0.34 | 60 | 1008.2 |
| 20260902190505 | 88 | 154 | 2.0 | 3.0 | 0.00 | 0.35 | 0.34 | 60 | 1008.5 |
| 20260902190005 | 89 | 154 | 1.0 | 3.0 | 0.00 | 0.35 | 0.34 | 59 | 1008.5 |
| 20260902185505 | 89 | 154 | 1.0 | 3.0 | 0.00 | 0.35 | 0.34 | 61 | 1008.7 |
| 20260902185006 | 89 | 154 | 1.0 | 6.0 | 0.00 | 0.35 | 0.34 | 61 | 1008.9 |
| 20260902184505 | 89 | 158 | 2.0 | 6.0 | 0.00 | 0.35 | 0.34 | 60 | 1009.0 |
| 20260902184005 | 89 | 178 | 1.0 | 2.0 | 0.00 | 0.35 | 0.34 | 58 | 1009.1 |
| 20260902183506 | 89 | 178 | 1.0 | 2.0 | 0.00 | 0.35 | 0.34 | 63 | 1008.9 |
| 20260902183005 | 88 | 215 | 0.0 | 2.0 | 0.00 | 0.35 | 0.34 | 63 | 1008.7 |
| 20260902182505 | 88 | 319 | 0.0 | 2.0 | 0.00 | 0.35 | 0.34 | 62 | 1008.8 |
| 20260902181505 | 88 | 319 | 1.0 | 3.0 | 0.00 | 0.35 | 0.34 | 60 | 1008.9 |
| 20260902180505 | 87 | 163 | 1.0 | 2.0 | 0.00 | 0.35 | 0.34 | 63 | 1009.1 |
| 20260902175505 | 87 | 164 | 1.0 | 5.0 | 0.00 | 0.35 | 0.34 | 62 | 1009.2 |
| 20260902175006 | 87 | 169 | 1.0 | 5.0 | 0.00 | 0.35 | 0.34 | 63 | 1009.4 |
| 20260902173006 | 84 | 175 | 1.0 | 5.0 | 0.00 | 0.35 | 0.34 | 70 | 1009.5 |
| 20260902172505 | 84 | 163 | 1.0 | 5.0 | 0.00 | 0.35 | 0.34 | 69 | 1009.5 |
| 20260902172006 | 83 | 168 | 2.0 | 7.0 | 0.00 | 0.35 | 0.34 | 70 | 1009.7 |
| 20260902171505 | 83 | 149 | 1.0 | 5.0 | 0.00 | 0.35 | 0.34 | 71 | 1009.7 |
| 20260902170506 | 82 | 175 | 3.0 | 5.0 | 0.00 | 0.35 | 0.34 | 69 | 1009.7 |
| 20260902170006 | 82 | 173 | 3.0 | 6.0 | 0.00 | 0.35 | 0.34 | 71 | 1009.8 |
| 20260902165505 | 81 | 167 | 3.0 | 6.0 | 0.00 | 0.35 | 0.34 | 70 | 1009.7 |
| 20260902165005 | 81 | 164 | 2.0 | 6.0 | 0.00 | 0.35 | 0.34 | 71 | 1009.7 |
| 20260902164505 | 81 | 159 | 2.0 | 5.0 | 0.00 | 0.35 | 0.34 | 71 | 1009.6 |
| 20260902164006 | 81 | 171 | 2.0 | 5.0 | 0.00 | 0.35 | 0.34 | 73 | 1009.6 |
| 20260902163505 | 80 | 173 | 2.0 | 5.0 | 0.00 | 0.35 | 0.34 | 74 | 1009.5 |
| 20260902163005 | 79 | 173 | 2.0 | 5.0 | 0.00 | 0.35 | 0.34 | 75 | 1009.5 |
| 20260902162006 | 78 | 171 | 1.0 | 5.0 | 0.00 | 0.35 | 0.34 | 77 | 1009.5 |
| 20260902161006 | 77 | 160 | 2.0 | 5.0 | 0.00 | 0.35 | 0.34 | 79 | 1009.6 |
| 20260902160506 | 77 | 187 | 2.0 | 5.0 | 0.00 | 0.35 | 0.34 | 79 | 1009.6 |
| 20260902160008 | 77 | 170 | 2.0 | 5.0 | 0.00 | 0.35 | 0.34 | 79 | 1009.6 |
| 20260902155505 | 76 | 139 | 2.0 | 7.0 | 0.00 | 0.35 | 0.34 | 81 | 1009.7 |
| 20260902155005 | 75 | 171 | 2.0 | 7.0 | 0.00 | 0.35 | 0.34 | 82 | 1009.7 |
| 20260902154006 | 74 | 171 | 2.0 | 7.0 | 0.00 | 0.35 | 0.34 | 85 | 1009.5 |
| 20260902153505 | 74 | 167 | 2.0 | 6.0 | 0.00 | 0.35 | 0.34 | 88 | 1009.5 |
| 20260902153006 | 73 | 166 | 3.0 | 6.0 | 0.00 | 0.35 | 0.34 | 90 | 1009.6 |
| 20260902152506 | 72 | 169 | 3.0 | 6.0 | 0.00 | 0.35 | 0.34 | 90 | 1009.5 |
| 20260902152006 | 72 | 164 | 3.0 | 5.0 | 0.00 | 0.35 | 0.34 | 92 | 1009.5 |
| 20260902151505 | 71 | 173 | 2.0 | 6.0 | 0.00 | 0.35 | 0.34 | 92 | 1009.5 |
| 20260902151005 | 71 | 177 | 2.0 | 8.0 | 0.00 | 0.35 | 0.34 | 92 | 1009.5 |
| 20260902150505 | 70 | 171 | 3.0 | 8.0 | 0.00 | 0.35 | 0.34 | 92 | 1009.4 |
| 20260902150006 | 70 | 161 | 2.0 | 6.0 | 0.00 | 0.35 | 0.34 | 92 | 1009.5 |
| 20260902145505 | 70 | 173 | 2.0 | 6.0 | 0.00 | 0.35 | 0.34 | 93 | 1009.5 |
| 20260902144505 | 69 | 156 | 3.0 | 6.0 | 0.00 | 0.35 | 0.34 | 93 | 1009.5 |
| 20260902143505 | 68 | 163 | 1.0 | 6.0 | 0.00 | 0.35 | 0.34 | 92 | 1009.7 |
| 20260902143006 | 68 | 165 | 1.0 | 5.0 | 0.00 | 0.35 | 0.34 | 93 | 1009.7 |
| 20260902142505 | 68 | 162 | 2.0 | 5.0 | 0.00 | 0.35 | 0.34 | 92 | 1009.8 |
| 20260902141505 | 68 | 151 | 2.0 | 5.0 | 0.00 | 0.35 | 0.34 | 92 | 1009.7 |
| 20260902141005 | 68 | 113 | 1.0 | 2.0 | 0.00 | 0.35 | 0.34 | 93 | 1009.9 |
| 20260902140505 | 67 | 113 | 0.0 | 3.0 | 0.00 | 0.35 | 0.34 | 93 | 1010.0 |
| 20260902140005 | 67 | 113 | 2.0 | 6.0 | 0.00 | 0.35 | 0.34 | 93 | 1009.9 |
| 20260902135505 | 67 | 145 | 1.0 | 6.0 | 0.00 | 0.35 | 0.34 | 93 | 1009.9 |
| 20260902135006 | 67 | 161 | 1.0 | 3.0 | 0.00 | 0.35 | 0.34 | 93 | 1010.0 |
| 20260902134006 | 67 | 173 | 2.0 | 5.0 | 0.00 | 0.35 | 0.34 | 93 | 1010.1 |
| 20260902133505 | 66 | 174 | 1.0 | 3.0 | 0.00 | 0.35 | 0.34 | 93 | 1010.1 |
| 20260902133006 | 66 | 185 | 0.0 | 1.0 | 0.00 | 0.35 | 0.34 | 93 | 1009.9 |
| 20260902132505 | 66 | 185 | 1.0 | 3.0 | 0.00 | 0.35 | 0.34 | 93 | 1009.8 |
| 20260902132005 | 66 | 25 | 1.0 | 5.0 | 0.00 | 0.35 | 0.34 | 93 | 1009.7 |
| 20260902131505 | 66 | 54 | 1.0 | 5.0 | 0.00 | 0.35 | 0.34 | 93 | 1010.0 |
| 20260902131006 | 66 | 179 | 0.0 | 3.0 | 0.00 | 0.35 | 0.34 | 93 | 1010.3 |
| 20260902130505 | 65 | 39 | 0.0 | 1.0 | 0.00 | 0.35 | 0.34 | 93 | 1010.3 |
| 20260902130005 | 65 | 38 | 0.0 | 2.0 | 0.00 | 0.35 | 0.34 | 93 | 1010.2 |
| 20260902125511 | 64 | 38 | 0.0 | 1.0 | 0.00 | 0.35 | 0.34 | 93 | 1010.1 |
| 20260902125006 | 64 | 38 | 0.0 | 0.0 | 0.00 | 0.35 | 0.34 | 93 | 1010.4 |
| 20260902124505 | 64 | 38 | 0.0 | 0.0 | 0.00 | 0.35 | 0.34 | 93 | 1010.7 |
| 20260902124005 | 64 | 38 | 0.0 | 0.0 | 0.00 | 0.35 | 0.34 | 93 | 1010.5 |
| 20260902123006 | 64 | 38 | 0.0 | 0.0 | 0.00 | 0.35 | 0.34 | 93 | 1010.5 |
| 20260902122505 | 64 | 38 | 0.0 | 0.0 | 0.00 | 0.35 | 0.34 | 92 | 1010.4 |
| 20260902122005 | 64 | 38 | 0.0 | 0.0 | 0.00 | 0.35 | 0.34 | 92 | 1009.8 |
| 20260902121505 | 64 | 38 | 0.0 | 0.0 | 0.00 | 0.35 | 0.34 | 93 | 1009.7 |
| 20260902120505 | 64 | 38 | 0.0 | 1.0 | 0.00 | 0.35 | 0.34 | 93 | 1009.4 |
| 20260902120005 | 64 | 38 | 0.0 | 0.0 | 0.00 | 0.35 | 0.34 | 93 | 1009.0 |
| 20260902115505 | 64 | 38 | 0.0 | 0.0 | 0.00 | 0.35 | 0.34 | 92 | 1009.2 |
| 20260902115006 | 64 | 38 | 0.0 | 1.0 | 0.00 | 0.35 | 0.34 | 92 | 1009.3 |
| 20260902114505 | 64 | 38 | 0.0 | 1.0 | 0.00 | 0.35 | 0.34 | 92 | 1009.5 |
| 20260902113505 | 64 | 38 | 0.0 | 1.0 | 0.00 | 0.35 | 0.34 | 92 | 1009.6 |
| 20260902113005 | 64 | 38 | 1.0 | 3.0 | 0.00 | 0.35 | 0.34 | 92 | 1009.6 |
| 20260902112505 | 64 | 40 | 0.0 | 2.0 | 0.00 | 0.35 | 0.34 | 92 | 1009.6 |
| 20260902112006 | 64 | 40 | 1.0 | 3.0 | 0.00 | 0.35 | 0.34 | 92 | 1009.4 |
| 20260902111506 | 64 | 348 | 1.0 | 3.0 | 0.00 | 0.35 | 0.34 | 92 | 1009.4 |
| 20260902111006 | 64 | 339 | 1.0 | 3.0 | 0.01 | 0.35 | 0.34 | 92 | 1009.7 |
| 20260902110505 | 64 | 355 | 1.0 | 3.0 | 0.03 | 0.35 | 0.34 | 92 | 1009.9 |
| 20260902105005 | 64 | 140 | 0.0 | 0.0 | 0.03 | 0.35 | 0.34 | 92 | 1010.8 |
| 20260902104506 | 64 | 140 | 0.0 | 0.0 | 0.03 | 0.35 | 0.34 | 92 | 1011.2 |
| 20260902104006 | 64 | 140 | 0.0 | 2.0 | 0.03 | 0.35 | 0.34 | 92 | 1011.4 |
| 20260902103505 | 64 | 140 | 1.0 | 2.0 | 0.03 | 0.35 | 0.34 | 92 | 1010.7 |
| 20260902102505 | 64 | 140 | 1.0 | 3.0 | 0.03 | 0.35 | 0.34 | 92 | 1011.4 |
| 20260902102005 | 64 | 140 | 2.0 | 5.0 | 0.03 | 0.35 | 0.34 | 92 | 1011.7 |
| 20260902101505 | 64 | 162 | 4.0 | 6.0 | 0.03 | 0.35 | 0.34 | 92 | 1011.6 |
| 20260902101006 | 64 | 164 | 2.0 | 9.0 | 0.02 | 0.34 | 0.33 | 92 | 1011.3 |
| 20260902100505 | 64 | 175 | 6.0 | 9.0 | 0.00 | 0.32 | 0.31 | 92 | 1012.3 |
| 20260902100005 | 64 | 162 | 2.0 | 5.0 | 0.00 | 0.32 | 0.31 | 92 | 1010.7 |
| 20260902095506 | 63 | 171 | 1.0 | 3.0 | 0.00 | 0.32 | 0.31 | 92 | 1010.5 |
| 20260902095005 | 63 | 33 | 1.0 | 2.0 | 0.00 | 0.32 | 0.31 | 92 | 1010.5 |
| 20260902094505 | 63 | 33 | 0.0 | 2.0 | 0.00 | 0.32 | 0.31 | 92 | 1010.4 |
| 20260902094006 | 63 | 33 | 0.0 | 2.0 | 0.00 | 0.32 | 0.31 | 92 | 1010.2 |
| 20260902093505 | 63 | 33 | 0.0 | 2.0 | 0.00 | 0.32 | 0.31 | 92 | 1009.8 |
| 20260902093005 | 63 | 33 | 1.0 | 2.0 | 0.00 | 0.32 | 0.31 | 92 | 1009.4 |
| 20260902092505 | 63 | 33 | 0.0 | 1.0 | 0.00 | 0.32 | 0.31 | 92 | 1009.5 |
| 20260902092006 | 63 | 33 | 0.0 | 2.0 | 0.00 | 0.32 | 0.31 | 92 | 1009.8 |
| 20260902091007 | 64 | 7 | 1.0 | 3.0 | 0.00 | 0.32 | 0.31 | 92 | 1009.7 |
| 20260902090506 | 64 | 5 | 0.0 | 2.0 | 0.00 | 0.32 | 0.31 | 92 | 1009.8 |
| 20260902090006 | 64 | 14 | 0.0 | 2.0 | 0.00 | 0.32 | 0.31 | 92 | 1009.9 |
| 20260902085006 | 64 | 40 | 1.0 | 3.0 | 0.00 | 0.32 | 0.31 | 92 | 1009.8 |
| 20260902084507 | 64 | 163 | 0.0 | 2.0 | 0.00 | 0.32 | 0.31 | 92 | 1009.7 |
| 20260902084006 | 65 | 163 | 1.0 | 5.0 | 0.00 | 0.32 | 0.31 | 92 | 1009.8 |
| 20260902083506 | 65 | 163 | 0.0 | 1.0 | 0.00 | 0.32 | 0.31 | 92 | 1009.6 |
| 20260902083006 | 65 | 163 | 0.0 | 1.0 | 0.00 | 0.32 | 0.31 | 92 | 1009.7 |
| 20260902082506 | 65 | 163 | 0.0 | 1.0 | 0.00 | 0.32 | 0.31 | 92 | 1009.6 |
| 20260902082007 | 65 | 163 | 0.0 | 1.0 | 0.00 | 0.32 | 0.31 | 92 | 1009.9 |
| 20260902081506 | 65 | 163 | 0.0 | 2.0 | 0.00 | 0.32 | 0.31 | 92 | 1009.9 |
| 20260902081007 | 65 | 163 | 0.0 | 0.0 | 0.00 | 0.32 | 0.31 | 92 | 1010.0 |
| 20260902080506 | 65 | 163 | 0.0 | 3.0 | 0.00 | 0.32 | 0.31 | 92 | 1009.9 |
| 20260902080006 | 65 | 3 | 1.0 | 3.0 | 0.01 | 0.32 | 0.31 | 92 | 1009.7 |
| 20260902075506 | 65 | 4 | 1.0 | 6.0 | 0.02 | 0.32 | 0.31 | 92 | 1009.7 |
| 20260902075006 | 65 | 340 | 1.0 | 3.0 | 0.02 | 0.32 | 0.31 | 92 | 1009.7 |
| 20260902074507 | 65 | 72 | 3.0 | 6.0 | 0.03 | 0.32 | 0.31 | 92 | 1009.7 |
| 20260902074007 | 65 | 93 | 1.0 | 5.0 | 0.06 | 0.32 | 0.31 | 92 | 1009.9 |
| 20260902073506 | 65 | 27 | 1.0 | 3.0 | 0.21 | 0.32 | 0.31 | 92 | 1009.7 |
| 20260902072506 | 65 | 341 | 2.0 | 5.0 | 0.31 | 0.32 | 0.31 | 92 | 1010.1 |
| 20260902072007 | 66 | 70 | 1.0 | 6.0 | 0.31 | 0.32 | 0.31 | 92 | 1010.2 |
| 20260902070507 | 65 | 29 | 1.0 | 3.0 | 0.31 | 0.32 | 0.31 | 91 | 1010.3 |
| 20260902070007 | 66 | 43 | 1.0 | 5.0 | 0.30 | 0.31 | 0.30 | 91 | 1010.7 |
| 20260902065506 | 66 | 277 | 3.0 | 7.0 | 0.29 | 0.30 | 0.29 | 90 | 1012.0 |
| 20260902064506 | 67 | 286 | 2.0 | 12.0 | 0.28 | 0.29 | 0.28 | 90 | 1012.3 |
| 20260902064006 | 69 | 271 | 7.0 | 15.0 | 0.25 | 0.26 | 0.25 | 88 | 1013.0 |
| 20260902063506 | 70 | 237 | 8.0 | 26.0 | 0.10 | 0.11 | 0.10 | 87 | 1012.6 |
| 20260902063007 | 72 | 243 | 5.0 | 16.0 | 0.00 | 0.01 | 0.00 | 88 | 1010.1 |
| 20260902062507 | 72 | 243 | 2.0 | 7.0 | 0.00 | 0.01 | 0.00 | 89 | 1008.5 |
| 20260902061506 | 72 | 335 | 2.0 | 3.0 | 0.00 | 0.01 | 0.00 | 89 | 1007.9 |
| 20260902061006 | 72 | 21 | 1.0 | 3.0 | 0.00 | 0.01 | 0.00 | 90 | 1008.6 |
| 20260902060506 | 72 | 17 | 1.0 | 3.0 | 0.00 | 0.01 | 0.00 | 90 | 1008.5 |
| 20260902060006 | 72 | 17 | 1.0 | 2.0 | 0.00 | 0.01 | 0.00 | 90 | 1008.8 |
| 20260902055506 | 72 | 17 | 1.0 | 2.0 | 0.00 | 0.01 | 0.00 | 90 | 1009.1 |
| 20260902055007 | 72 | 18 | 0.0 | 1.0 | 0.00 | 0.01 | 0.00 | 90 | 1008.9 |
| 20260902054506 | 72 | 18 | 0.0 | 2.0 | 0.01 | 0.01 | 0.00 | 90 | 1008.8 |
| 20260902054007 | 72 | 18 | 1.0 | 2.0 | 0.00 | 0.01 | 0.00 | 90 | 1008.7 |
| 20260902053507 | 72 | 18 | 1.0 | 2.0 | 0.00 | 0.01 | 0.00 | 90 | 1008.6 |
| 20260902052506 | 72 | 19 | 1.0 | 3.0 | 0.00 | 0.01 | 0.00 | 89 | 1009.0 |
| 20260902052006 | 72 | 63 | 0.0 | 1.0 | 0.00 | 0.01 | 0.00 | 89 | 1009.1 |
| 20260902051506 | 72 | 63 | 0.0 | 0.0 | 0.00 | 0.01 | 0.00 | 89 | 1009.2 |
| 20260902051007 | 72 | 63 | 0.0 | 0.0 | 0.00 | 0.01 | 0.00 | 89 | 1009.0 |
| 20260902050506 | 72 | 63 | 1.0 | 2.0 | 0.00 | 0.01 | 0.00 | 89 | 1009.1 |
| 20260902050008 | 72 | 63 | 0.0 | 0.0 | 0.00 | 0.01 | 0.00 | 89 | 1009.5 |
| 20260902045006 | 73 | 63 | 0.0 | 1.0 | 0.01 | 0.01 | 0.01 | 89 | 1009.5 |
| 20260902044506 | 73 | 63 | 0.0 | 1.0 | 0.01 | 0.01 | 0.01 | 88 | 1009.3 |
| 20260902044006 | 73 | 63 | 0.0 | 0.0 | 0.00 | 0.00 | 0.00 | 88 | 1009.6 |
| 20260902043506 | 72 | 63 | 0.0 | 1.0 | 0.00 | 0.00 | 0.00 | 88 | 1009.6 |
| 20260902042506 | 73 | 63 | 0.0 | 0.0 | 0.00 | 0.00 | 0.00 | 88 | 1009.6 |
| 20260902041506 | 73 | 63 | 0.0 | 0.0 | 0.00 | 0.00 | 0.00 | 88 | 1009.4 |
| 20260902041006 | 73 | 63 | 0.0 | 0.0 | 0.00 | 0.00 | 0.00 | 88 | 1009.2 |
| 20260902040506 | 73 | 63 | 0.0 | 0.0 | 0.00 | 0.00 | 0.00 | 87 | 1009.2 |
| 20260902040006 | 73 | 63 | 0.0 | 0.0 | 0.00 | 0.00 | 0.00 | 87 | 1009.2 |
| 20260902035506 | 73 | 63 | 0.0 | 0.0 | 0.00 | 0.00 | 0.00 | 87 | 1009.2 |
| 20260902035006 | 73 | 63 | 0.0 | 2.0 | 0.00 | 0.00 | 0.00 | 87 | 1009.2 |
| 20260902034507 | 73 | 63 | 0.0 | 2.0 | 0.00 | 0.00 | 0.00 | 87 | 1009.3 |
| 20260902034007 | 73 | 63 | 0.0 | 1.0 | 0.00 | 0.00 | 0.00 | 87 | 1009.5 |
| 20260902033506 | 73 | 63 | 0.0 | 0.0 | 0.00 | 0.00 | 0.00 | 87 | 1009.7 |
| 20260902033006 | 74 | 63 | 0.0 | 0.0 | 0.00 | 0.00 | 0.00 | 86 | 1009.8 |
| 20260902032506 | 74 | 63 | 0.0 | 0.0 | 0.00 | 0.00 | 0.00 | 86 | 1009.8 |
| 20260902032006 | 74 | 63 | 0.0 | 0.0 | 0.00 | 0.00 | 0.00 | 85 | 1009.8 |
| 20260902031506 | 74 | 63 | 0.0 | 0.0 | 0.00 | 0.00 | 0.00 | 86 | 1009.7 |
| 20260902031006 | 74 | 63 | 0.0 | 0.0 | 0.00 | 0.00 | 0.00 | 85 | 1009.8 |
| 20260902030506 | 74 | 63 | 0.0 | 0.0 | 0.00 | 0.00 | 0.00 | 85 | 1009.8 |
| 20260902030006 | 74 | 63 | 0.0 | 0.0 | 0.00 | 0.00 | 0.00 | 85 | 1009.8 |
| 20260902025506 | 74 | 63 | 0.0 | 0.0 | 0.00 | 0.00 | 0.00 | 85 | 1009.9 |
| 20260902025006 | 74 | 63 | 0.0 | 0.0 | 0.00 | 0.00 | 0.00 | 85 | 1009.8 |
| 20260902024506 | 74 | 63 | 0.0 | 0.0 | 0.00 | 0.00 | 0.00 | 85 | 1009.8 |
| 20260902023506 | 74 | 63 | 0.0 | 0.0 | 0.00 | 0.00 | 0.00 | 85 | 1010.0 |
| 20260902023007 | 74 | 63 | 0.0 | 0.0 | 0.00 | 0.00 | 0.00 | 85 | 1009.9 |
| 20260902022506 | 75 | 63 | 0.0 | 1.0 | 0.00 | 0.00 | 0.00 | 84 | 1009.8 |
| 20260902022006 | 75 | 63 | 0.0 | 0.0 | 0.00 | 0.00 | 0.00 | 84 | 1009.8 |
| 20260902021506 | 75 | 63 | 0.0 | 0.0 | 0.00 | 0.00 | 0.00 | 84 | 1009.8 |
| 20260902020506 | 76 | 63 | 1.0 | 2.0 | 0.00 | 0.00 | 0.00 | 83 | 1009.9 |
| 20260902020006 | 76 | 63 | 0.0 | 0.0 | 0.00 | 0.00 | 0.00 | 83 | 1009.8 |
| 20260902015506 | 75 | 63 | 0.0 | 1.0 | 0.00 | 0.00 | 0.00 | 83 | 1009.9 |
| 20260902015006 | 76 | 63 | 0.0 | 0.0 | 0.00 | 0.00 | 0.00 | 83 | 1009.8 |
| 20260902014506 | 76 | 63 | 0.0 | 0.0 | 0.00 | 0.00 | 0.00 | 83 | 1009.7 |
| 20260902014006 | 76 | 63 | 0.0 | 0.0 | 0.00 | 0.00 | 0.00 | 82 | 1009.6 |
| 20260902013506 | 76 | 63 | 0.0 | 0.0 | 0.00 | 0.00 | 0.00 | 81 | 1009.6 |
| 20260902013006 | 76 | 63 | 0.0 | 0.0 | 0.00 | 0.00 | 0.00 | 82 | 1009.7 |
| 20260902012507 | 76 | 63 | 0.0 | 0.0 | 0.00 | 0.00 | 0.00 | 81 | 1009.7 |
| 20260902012006 | 77 | 63 | 0.0 | 0.0 | 0.00 | 0.00 | 0.00 | 81 | 1009.7 |
| 20260902010506 | 77 | 63 | 0.0 | 0.0 | 0.00 | 0.00 | 0.00 | 80 | 1009.4 |
| 20260902010006 | 77 | 63 | 0.0 | 0.0 | 0.00 | 0.00 | 0.00 | 79 | 1009.5 |
| 20260902005506 | 78 | 63 | 0.0 | 0.0 | 0.00 | 0.00 | 0.00 | 78 | 1009.7 |
| 20260902005006 | 78 | 63 | 0.0 | 0.0 | 0.00 | 0.00 | 0.00 | 78 | 1009.7 |
| 20260902004506 | 78 | 63 | 0.0 | 0.0 | 0.00 | 0.00 | 0.00 | 77 | 1009.5 |
| 20260902004006 | 78 | 63 | 0.0 | 0.0 | 0.00 | 0.00 | 0.00 | 77 | 1009.6 |
| 20260902003506 | 78 | 63 | 0.0 | 0.0 | 0.00 | 0.00 | 0.00 | 77 | 1009.6 |
| 20260902002506 | 79 | 63 | 0.0 | 0.0 | 0.00 | 0.00 | 0.00 | 76 | 1009.6 |
| 20260902002006 | 79 | 63 | 0.0 | 0.0 | 0.00 | 0.00 | 0.00 | 75 | 1009.6 |
| 20260902001506 | 79 | 163 | 0.0 | 0.0 | 0.00 | 0.00 | 0.00 | 74 | 1009.6 |